Regional Weather Roundup
Issued by NWS

Home | Current Version | Previous Version | Graphics & Text | Print | Product List | Glossary On
Versions: 1 2 3 4 5 6 7 8 9 10 11 12 13 14 15 16 17 18 19 20 21 22 23 24 25 26 27 28
000
ASUS45 KCYS 251010
RWRWY

WYOMING REGIONAL WEATHER ROUNDUP
NATIONAL WEATHER SERVICE CHEYENNE WY
400 AM MDT MON SEP 25 2017

NOTE:  "FAIR" INDICATES FEW OR NO CLOUDS BELOW 12,000 FEET
WITH NO SIGNIFICANT WEATHER AND/OR OBSTRUCTIONS TO VISIBILITY.

WYZ001-251100-
YELLOWSTONE NATIONAL PARK

CITY           SKY/WX    TMP DP  RH WIND       PRES   REMARKS
LK YELLOWSTONE NOT AVBL
W YELLOWSTONE  NOT AVBL

$$
WYZ002>013-054>058-071-098>099-251100-
NORTHERN WYOMING

CITY           SKY/WX    TMP DP  RH WIND       PRES   REMARKS
JACKSON        CLOUDY    34  34 100 S5        30.10F WCI  30
CODY           CLOUDY    40  35  83 CALM      30.11S
GREYBULL       LGT RAIN  44  43  96 CALM      30.09S
WORLAND        CLOUDY    43  42  97 S5        30.09S
SHERIDAN       CLOUDY    44  42  93 CALM      30.10S
BUFFALO        LGT RAIN  40  37  89 SE6       30.10F VSB 3/4
GILLETTE       CLOUDY    40  32  73 E3        30.10S
HULETT         LGT RAIN  39  37  93 CALM      30.12F
NEWCASTLE      DRIZZLE   41  36  81 CALM      30.12S

$$
WYZ014>020-022>026-101>103-251100-
CENTRAL WYOMING

CITY           SKY/WX    TMP DP  RH WIND       PRES   REMARKS
BIG PINEY      LGT SNOW  32  32 100 CALM      30.11S FOG
PINEDALE       LGT SNOW  32  32 100 CALM      30.12F
DUBOIS         CLOUDY    32  32 100 CALM      30.10R
LANDER         CLOUDY    38  36  92 SE5       30.09S WCI  34
RIVERTON       CLOUDY    38  37  97 CALM      30.11S
CASPER         CLOUDY    36  34  92 CALM      30.11S
DOUGLAS        CLOUDY    38  36  92 SE3       30.12S

$$
WYZ021-027>030-104>119-251100-
SOUTHERN WYOMING

CITY           SKY/WX    TMP DP  RH WIND       PRES   REMARKS
EVANSTON       CLOUDY    34  34 100 SW7       30.12F WCI  28
FORT BRIDGER   PTSUNNY   36  36 100 W9        30.14S WCI  29
ROCK SPRINGS   CLOUDY    35  33  92 CALM      30.10S
DIXON          CLOUDY    38  33  85 CALM      30.13S
RAWLINS        MOCLDY    33  32  96 SE3       30.10R
SARATOGA       CLOUDY    34  34 100 E7        30.11S FOG     WCI  28
LARAMIE        FOG       28  27  96 W5        30.10R VSB 3/4 WCI  23
CHEYENNE       CLOUDY    38  37  97 N7        30.11R FOG     WCI  33
TORRINGTON     CLOUDY    41  41 100 NW5       30.11R
PINE BLUFFS    CLOUDY    41  41 100 MISG      30.12R FOG

$$




USA.gov is the U.S. government's official web portal to all federal, state and local government web resources and services.